Regional Weather Roundup
Issued by NWS Little Rock, AR

Current Version | Previous Version | Text Only | Print | Product List | Glossary On
Versions: 1 2 3 4 5 6 7 8 9 10 11 12 13 14 15 16 17 18 19 20 21 22 23 24 25 26 27 28 29 30 31
000
ASUS44 KLZK 280905
RWRLZK

WEATHER ROUNDUP FOR ARKANSAS
NATIONAL WEATHER SERVICE LITTLE ROCK AR
400 AM CDT TUE MAR 28 2017

NOTE: "FAIR" INDICATES FEW OR NO CLOUDS BELOW 12,000 FEET WITH NO
SIGNIFICANT WEATHER AND/OR OBSTRUCTIONS TO VISIBILITY.

ARZ001-003-010-029-281000-
NORTHWEST ARKANSAS

CITY           SKY/WX    TMP DP  RH WIND       PRES   REMARKS
FAYETTEVILLE   CLOUDY    52  49  89 N3        29.97S
FORT SMITH     CLEAR     47  44  90 CALM      29.96R
HARRISON       CLOUDY    52  50  93 CALM      29.97F
BENTONVILLE    CLOUDY    52  46  82 CALM      29.97F
ROGERS         CLOUDY    51  49  92 NE5       29.97F
SILOAM SPGS    CLOUDY    52  45  76 CALM      29.97S
HIGHFILL       CLOUDY    52  49  89 NE3       29.96F
$$

ARZ004-005-016-281000-
NORTH CENTRAL ARKANSAS

CITY           SKY/WX    TMP DP  RH WIND       PRES   REMARKS
BATESVILLE     MOCLDY    54  50  87 W3        29.97R
FLIPPIN        CLOUDY    54  46  76 CALM      29.95F
MTN HOME       CLOUDY    53  51  93 CALM      29.96F
$$

ARZ040-041-281000-
WEST CENTRAL ARKANSAS

CITY           SKY/WX    TMP DP  RH WIND       PRES   REMARKS
MENA           CLEAR     50  48  93 CALM      29.94S
MOUNT IDA      CLEAR     50  47  89 CALM      29.91F FOG
$$

ARZ009-017-025-026-028-281000-
NORTHEAST ARKANSAS

CITY           SKY/WX    TMP DP  RH WIND       PRES   REMARKS
CORNING        PTSUNNY   54  54 100 N6        29.96R
JONESBORO      CLOUDY    58  55  90 NE3       29.94S
NEWPORT        PTCLDY    54  52  93 NW8       29.95R
WALNUT RIDGE   MOCLDY    55  50  82 N6        29.95R
BLYTHEVILLE    MOCLDY    54  53  97 NE8       29.94S
$$

ARZ022-023-033-042-044-281000-
CENTRAL ARKANSAS

CITY           SKY/WX    TMP DP  RH WIND       PRES   REMARKS
N LITTLE ROCK    N/A     56  52  86 N6        29.94S
JACKSONVILLE   CLEAR     56  53  89 CALM      29.94R
CONWAY         FOG       54  54 100 CALM      29.94S VSB 1/2
SEARCY         CLEAR     56  53  90 N6        29.96S
HOT SPRINGS    CLEAR     53  52  96 W3        29.94S
RUSSELLVILLE     N/A     54  52  93 CALM      29.95S
CLINTON        CLOUDY    54  52  94 CALM      29.96S
$$

ARZ036-281000-
EAST ARKANSAS

CITY           SKY/WX    TMP DP  RH WIND       PRES   REMARKS
WEST MEMPHIS   MOCLDY    58  58 100 NW3       29.92R FOG
$$

ARZ050-053-066-070-073-281000-
SOUTHWEST ARKANSAS

CITY           SKY/WX    TMP DP  RH WIND       PRES   REMARKS
ARKADELPHIA    PTSUNNY   58  55  90 CALM      29.94S
CAMDEN         MOCLDY    57  54  88 NW3       29.93S
TEXARKANA      CLOUDY    60  56  86 E7        29.92S
EL DORADO      MOCLDY    61  57  87 N3        29.92S
DE QUEEN       CLEAR     52  52 100 E5        29.89F
$$

ARZ056-057-069-281000-
SOUTHEAST ARKANSAS

CITY           SKY/WX    TMP DP  RH WIND       PRES   REMARKS
PINE BLUFF     MOCLDY    59  55  87 N7        29.92F
STUTTGART      PTCLDY    57  48  72 N7        29.94S
MONTICELLO     PTCLDY    63  57  81 CALM      29.91S

$$






USA.gov is the U.S. government's official web portal to all federal, state and local government web resources and services.